QPF
0.02 0.02 0.02 0.01 0.02 0.02 0.02 0.02 0.02 0.02 0.02 0.02 0.03 0.04 0.03 0.03 0.02 0.02 0.02 0.01 0.01 0.01 0.01 0.01 0.01 0.02 0.02 0.02 0.01 0.01 0.01 0.01 0.02 0.03 0.03 0.02 0.01 0.03 0.03 0.02 0.02 0.03 0.02
0.01 0.02 0.02 0.01 0.02 0.02 0.02 0.02 0.02 0.01 0.01 0.02 0.03 0.04 0.03 0.03 0.03 0.03 0.02 0.02 0.01 0.01 0.02 0.02 0.02 0.02 0.04 0.03 0.02 0.01 0.01 0.01 0.02 0.02 0.02 0.03 0.04 0.04 0.04 0.04 0.04 0.04 0.03
0.01 0.01 0.02 0.01 0.02 0.04 0.05 0.04 0.04 0.03 0.02 0.03 0.03 0.03 0.02 0.02 0.02 0.03 0.03 0.03 0.03 0.03 0.03 0.04 0.04 0.03 0.03 0.03 0.03 0.03 0.03 0.03 0.03 0.03 0.03 0.03 0.04 0.04 0.05 0.04 0.05 0.06 0.05
0.02 0.03 0.02 0.01 0.02 0.07 0.11 0.05 0.03 0.03 0.03 0.03 0.02 0.02 0.03 0.02 0.02 0.02 0.03 0.03 0.03 0.03 0.03 0.04 0.04 0.04 0.04 0.04 0.04 0.04 0.04 0.04 0.04 0.05 0.04 0.04 0.03 0.04 0.05 0.04 0.05 0.06 0.06
0.03 0.04 0.02 0.01 0.02 0.04 0.09 0.06 0.04 0.04 0.04 0.04 0.03 0.03 0.03 0.01 0.01 0.02 0.02 0.02 0.02 0.03 0.03 0.04 0.05 0.05 0.06 0.06 0.05 0.05 0.05 0.08 0.07 0.06 0.05 0.04 0.04 0.05 0.06 0.05 0.05 0.05 0.04
0.05 0.04 0.02 0.01 0.02 0.03 0.04 0.04 0.05 0.05 0.05 0.05 0.05 0.04 0.02 0.01 0.01 0.02 0.02 0.03 0.02 0.03 0.03 0.04 0.03 0.04 0.06 0.08 0.07 0.06 0.08 0.10 0.11 0.09 0.07 0.06 0.05 0.05 0.06 0.06 0.06 0.05 0.05
0.05 0.03 0.02 0.01 0.01 0.02 0.04 0.06 0.07 0.07 0.06 0.07 0.06 0.05 0.03 0.01 0.01 0.01 0.02 0.03 0.03 0.02 0.02 0.03 0.03 0.04 0.04 0.05 0.05 0.04 0.04 0.06 0.07 0.07 0.07 0.07 0.06 0.06 0.05 0.05 0.05 0.05 0.03
0.07 0.05 0.03 0.02 0.02 0.03 0.06 0.08 0.09 0.09 0.10 0.09 0.07 0.07 0.06 0.03 0.02 0.02 0.02 0.02 0.02 0.02 0.02 0.03 0.03 0.02 0.02 0.03 0.03 0.03 0.03 0.03 0.04 0.04 0.04 0.05 0.05 0.05 0.06 0.06 0.04 0.04 0.04
0.07 0.06 0.03 0.03 0.03 0.06 0.07 0.10 0.13 0.13 0.11 0.09 0.07 0.09 0.07 0.04 0.02 0.01 0.02 0.02 0.02 0.02 0.02 0.02 0.02 0.02 0.02 0.02 0.03 0.03 0.03 0.03 0.03 0.03 0.02 0.02 0.03 0.03 0.04 0.05 0.04 0.04 0.04
0.06 0.06 0.05 0.05 0.07 0.08 0.11 0.17 0.14 0.09 0.08 0.07 0.06 0.05 0.04 0.02 0.02 0.02 0.02 0.02 0.01 0.02 0.02 0.01 0.01 0.01 0.01 0.01 0.02 0.02 0.03 0.02 0.02 0.02 0.02 0.01 0.02 0.02 0.03 0.03 0.03 0.03 0.03
0.04 0.05 0.06 0.07 0.08 0.08 0.09 0.11 0.10 0.10 0.08 0.06 0.05 0.03 0.02 0.02 0.01 0.02 0.02 0.01 0.01 0.02 0.01 0.01 0.01 0.01 0.01 0.01 0.01 0.01 0.02 0.02 0.02 0.01 0.01 0.01 0.02 0.02 0.02 0.02 0.02 0.02 0.03
0.05 0.04 0.05 0.05 0.05 0.05 0.06 0.07 0.07 0.07 0.06 0.04 0.03 0.02 0.01 0.01 0.02 0.01 0.01 0.02 0.02 0.02 0.02 0.02 0.02 0.02 0.01 0.01 0.01 0.01 0.01 0.01 0.01 0.01 0.01 0.01 0.02 0.02 0.01 0.01 0.02 0.03 0.04
0.05 0.04 0.03 0.02 0.02 0.03 0.05 0.06 0.04 0.03 0.04 0.04 0.04 0.04 0.02 0.02 0.03 0.03 0.03 0.03 0.02 0.02 0.02 0.02 0.02 0.02 0.02 0.01 0.01 0.01 0.01 0.01 0.01 0.02 0.02 0.03 0.03 0.01 0.01 0.01 0.01 0.02 0.04
0.03 0.06 0.04 0.02 0.02 0.03 0.04 0.04 0.04 0.03 0.03 0.04 0.11 0.12 0.05 0.03 0.03 0.03 0.03 0.03 0.03 0.02 0.02 0.02 0.02 0.01 0.01 0.01 0.01 0.01 0.02 0.02 0.02 0.02 0.04 0.04 0.04 0.03 0.02 0.02 0.02 0.02 0.03
0.02 0.03 0.04 0.04 0.02 0.03 0.03 0.04 0.03 0.02 0.02 0.02 0.04 0.05 0.04 0.04 0.03 0.03 0.03 0.03 0.02 0.02 0.02 0.01 0.01 0.01 0.01 0.01 0.01 0.01 0.01 0.02 0.02 0.03 0.04 0.04 0.05 0.05 0.03 0.02 0.03 0.03 0.04
0.01 0.01 0.02 0.03 0.04 0.04 0.03 0.04 0.04 0.03 0.04 0.05 0.06 0.06 0.07 0.07 0.05 0.05 0.05 0.04 0.03 0.02 0.02 0.01 0.01 0.01 0.01 0.01 0.01 0.02 0.01 0.01 0.02 0.02 0.03 0.04 0.04 0.04 0.04 0.04 0.04 0.03 0.03
0.01 0.01 0.01 0.03 0.05 0.05 0.05 0.05 0.05 0.06 0.08 0.11 0.12 0.12 0.12 0.08 0.06 0.06 0.06 0.05 0.04 0.04 0.03 0.03 0.02 0.01 0.01 0.02 0.02 0.03 0.02 0.02 0.02 0.02 0.02 0.02 0.02 0.02 0.03 0.03 0.03 0.03 0.03
0.02 0.02 0.01 0.02 0.06 0.08 0.09 0.11 0.10 0.09 0.09 0.11 0.16 0.15 0.10 0.07 0.06 0.06 0.07 0.08 0.08 0.05 0.04 0.04 0.03 0.02 0.02 0.05 0.05 0.05 0.04 0.04 0.03 0.02 0.02 0.02 0.03 0.03 0.03 0.04 0.03 0.02 0.02
0.01 0.01 0.01 0.01 0.06 0.10 0.09 0.10 0.13 0.12 0.10 0.10 0.11 0.12 0.09 0.07 0.06 0.06 0.07 0.08 0.08 0.08 0.07 0.06 0.06 0.05 0.07 0.10 0.12 0.11 0.08 0.06 0.04 0.03 0.03 0.02 0.02 0.03 0.04 0.04 0.03 0.02 0.02
0.01 0.01 0.01 0.01 0.03 0.09 0.10 0.08 0.09 0.11 0.10 0.08 0.07 0.06 0.06 0.06 0.06 0.07 0.07 0.08 0.09 0.09 0.10 0.08 0.08 0.09 0.09 0.10 0.11 0.13 0.10 0.08 0.06 0.05 0.04 0.04 0.03 0.04 0.04 0.03 0.02 0.02 0.02
0.02 0.01 0.01 0.01 0.01 0.03 0.05 0.05 0.07 0.08 0.07 0.06 0.05 0.06 0.07 0.08 0.09 0.09 0.08 0.07 0.07 0.06 0.05 0.04 0.05 0.06 0.06 0.07 0.09 0.11 0.10 0.09 0.07 0.05 0.05 0.05 0.05 0.03 0.02 0.02 0.02 0.02 0.02
0.02 0.02 0.01 0.01 0.01 0.01 0.01 0.01 0.02 0.03 0.04 0.04 0.04 0.05 0.06 0.09 0.10 0.06 0.04 0.03 0.03 0.03 0.02 0.01 0.02 0.02 0.03 0.05 0.06 0.09 0.12 0.11 0.09 0.09 0.08 0.07 0.05 0.03 0.02 0.02 0.02 0.02 0.02
0.03 0.02 0.01 0.01 0.01 0.01 0.01 0.01 0.01 0.02 0.03 0.03 0.03 0.03 0.04 0.05 0.05 0.04 0.03 0.02 0.02 0.02 0.01 0.01 0.01 0.01 0.01 0.02 0.04 0.10 0.14 0.14 0.12 0.10 0.07 0.05 0.04 0.02 0.01 0.02 0.02 0.03 0.02
0.06 0.06 0.04 0.02 0.02 0.02 0.02 0.02 0.02 0.02 0.03 0.03 0.03 0.03 0.04 0.05 0.05 0.03 0.03 0.03 0.02 0.02 0.01 0.01 0.00 0.00 0.01 0.01 0.02 0.04 0.06 0.07 0.06 0.06 0.07 0.05 0.04 0.03 0.02 0.02 0.02 0.02 0.02
0.09 0.09 0.08 0.05 0.05 0.04 0.03 0.03 0.03 0.03 0.03 0.03 0.04 0.04 0.04 0.04 0.04 0.03 0.03 0.03 0.02 0.02 0.01 0.01 0.00 0.00 0.00 0.01 0.02 0.03 0.02 0.02 0.02 0.04 0.04 0.04 0.03 0.03 0.03 0.02 0.02 0.01 0.01
0.11 0.10 0.08 0.06 0.04 0.03 0.03 0.04 0.05 0.05 0.05 0.04 0.04 0.04 0.03 0.03 0.04 0.03 0.03 0.03 0.03 0.02 0.01 0.01 0.01 0.01 0.02 0.02 0.02 0.03 0.02 0.02 0.04 0.03 0.01 0.01 0.01 0.02 0.02 0.02 0.01 0.01 0.01
MSLP
1013.07 1013.36 1013.64 1013.89 1014.09 1014.26 1014.45 1014.67 1014.95 1015.30 1015.69 1016.10 1016.45 1016.72 1016.86 1016.87 1016.76 1016.58 1016.38 1016.22 1016.16 1016.23 1016.44 1016.77 1017.19 1017.65 1018.12 1018.56 1018.94 1019.27 1019.55 1019.81 1020.04 1020.27 1020.51 1020.73 1020.93 1021.09 1021.19 1021.21 1021.17 1021.05 1020.89
1012.81 1013.12 1013.41 1013.64 1013.81 1013.96 1014.10 1014.30 1014.58 1014.94 1015.38 1015.83 1016.25 1016.58 1016.76 1016.79 1016.68 1016.48 1016.24 1016.05 1015.96 1016.00 1016.20 1016.54 1016.97 1017.45 1017.93 1018.38 1018.77 1019.10 1019.38 1019.64 1019.90 1020.17 1020.45 1020.73 1021.00 1021.24 1021.41 1021.51 1021.53 1021.48 1021.38
1012.42 1012.75 1013.06 1013.30 1013.47 1013.59 1013.71 1013.89 1014.15 1014.53 1014.99 1015.49 1015.96 1016.35 1016.58 1016.65 1016.56 1016.36 1016.12 1015.91 1015.79 1015.80 1015.97 1016.28 1016.70 1017.16 1017.62 1018.05 1018.43 1018.75 1019.04 1019.31 1019.60 1019.90 1020.24 1020.59 1020.93 1021.24 1021.48 1021.66 1021.75 1021.77 1021.73
1011.86 1012.23 1012.57 1012.85 1013.03 1013.16 1013.27 1013.43 1013.68 1014.06 1014.53 1015.06 1015.57 1016.01 1016.31 1016.43 1016.39 1016.22 1015.99 1015.77 1015.63 1015.62 1015.75 1016.02 1016.39 1016.80 1017.22 1017.62 1017.97 1018.28 1018.56 1018.84 1019.15 1019.50 1019.88 1020.29 1020.70 1021.07 1021.39 1021.63 1021.79 1021.87 1021.89
1011.13 1011.55 1011.96 1012.29 1012.51 1012.66 1012.78 1012.93 1013.17 1013.53 1014.00 1014.54 1015.09 1015.57 1015.92 1016.11 1016.13 1016.01 1015.81 1015.61 1015.47 1015.43 1015.52 1015.74 1016.04 1016.40 1016.77 1017.11 1017.42 1017.71 1017.98 1018.27 1018.59 1018.97 1019.39 1019.84 1020.29 1020.72 1021.09 1021.39 1021.61 1021.75 1021.83
1010.26 1010.75 1011.23 1011.64 1011.92 1012.11 1012.25 1012.39 1012.62 1012.96 1013.41 1013.94 1014.50 1015.01 1015.42 1015.67 1015.75 1015.70 1015.56 1015.40 1015.26 1015.21 1015.27 1015.43 1015.67 1015.96 1016.26 1016.55 1016.83 1017.08 1017.34 1017.62 1017.95 1018.33 1018.77 1019.24 1019.72 1020.18 1020.59 1020.94 1021.20 1021.40 1021.54
1009.31 1009.87 1010.44 1010.92 1011.28 1011.52 1011.68 1011.83 1012.04 1012.34 1012.76 1013.27 1013.83 1014.36 1014.80 1015.11 1015.26 1015.28 1015.21 1015.09 1014.98 1014.93 1014.96 1015.07 1015.26 1015.48 1015.72 1015.96 1016.19 1016.41 1016.65 1016.91 1017.23 1017.61 1018.04 1018.51 1018.99 1019.46 1019.89 1020.27 1020.58 1020.83 1021.03
1008.33 1008.96 1009.61 1010.17 1010.60 1010.89 1011.08 1011.23 1011.42 1011.69 1012.07 1012.55 1013.08 1013.62 1014.08 1014.44 1014.66 1014.75 1014.74 1014.68 1014.60 1014.56 1014.57 1014.66 1014.79 1014.97 1015.16 1015.34 1015.53 1015.72 1015.92 1016.16 1016.45 1016.80 1017.21 1017.65 1018.12 1018.58 1019.01 1019.41 1019.75 1020.05 1020.32
1007.40 1008.08 1008.79 1009.42 1009.90 1010.23 1010.45 1010.60 1010.77 1011.01 1011.36 1011.79 1012.30 1012.82 1013.30 1013.69 1013.96 1014.12 1014.17 1014.16 1014.12 1014.10 1014.11 1014.17 1014.27 1014.40 1014.55 1014.70 1014.85 1015.00 1015.18 1015.38 1015.64 1015.95 1016.31 1016.71 1017.14 1017.58 1018.00 1018.41 1018.78 1019.13 1019.46
1006.56 1007.27 1008.00 1008.66 1009.18 1009.53 1009.76 1009.93 1010.09 1010.31 1010.62 1011.02 1011.50 1012.00 1012.48 1012.89 1013.20 1013.40 1013.51 1013.54 1013.54 1013.54 1013.56 1013.61 1013.69 1013.80 1013.91 1014.03 1014.15 1014.28 1014.42 1014.59 1014.80 1015.06 1015.37 1015.72 1016.10 1016.50 1016.91 1017.31 1017.71 1018.11 1018.50
1005.84 1006.54 1007.26 1007.91 1008.42 1008.78 1009.03 1009.20 1009.36 1009.57 1009.86 1010.24 1010.69 1011.18 1011.65 1012.07 1012.40 1012.63 1012.77 1012.85 1012.88 1012.90 1012.93 1012.98 1013.05 1013.14 1013.24 1013.34 1013.43 1013.54 1013.65 1013.78 1013.95 1014.16 1014.41 1014.71 1015.04 1015.39 1015.78 1016.17 1016.59 1017.02 1017.47
1005.25 1005.89 1006.55 1007.15 1007.63 1007.98 1008.22 1008.41 1008.58 1008.81 1009.10 1009.48 1009.92 1010.38 1010.84 1011.25 1011.59 1011.84 1012.01 1012.11 1012.17 1012.21 1012.25 1012.31 1012.38 1012.46 1012.55 1012.63 1012.71 1012.80 1012.88 1012.99 1013.12 1013.28 1013.47 1013.71 1013.98 1014.30 1014.65 1015.03 1015.45 1015.90 1016.39
1004.75 1005.30 1005.87 1006.38 1006.80 1007.12 1007.37 1007.57 1007.78 1008.03 1008.35 1008.74 1009.18 1009.64 1010.08 1010.48 1010.81 1011.06 1011.24 1011.35 1011.43 1011.49 1011.55 1011.62 1011.69 1011.78 1011.86 1011.94 1012.01 1012.07 1012.14 1012.21 1012.30 1012.42 1012.56 1012.75 1012.97 1013.23 1013.54 1013.89 1014.29 1014.75 1015.25
1004.33 1004.76 1005.20 1005.61 1005.96 1006.25 1006.49 1006.73 1006.98 1007.29 1007.64 1008.06 1008.50 1008.96 1009.39 1009.77 1010.08 1010.33 1010.51 1010.63 1010.73 1010.80 1010.88 1010.96 1011.04 1011.13 1011.21 1011.28 1011.34 1011.38 1011.43 1011.47 1011.53 1011.60 1011.69 1011.82 1011.99 1012.20 1012.45 1012.76 1013.13 1013.56 1014.05
1003.96 1004.25 1004.56 1004.86 1005.14 1005.39 1005.65 1005.92 1006.24 1006.60 1007.01 1007.46 1007.92 1008.38 1008.79 1009.15 1009.45 1009.68 1009.85 1009.99 1010.09 1010.19 1010.28 1010.37 1010.47 1010.55 1010.63 1010.69 1010.73 1010.75 1010.77 1010.77 1010.79 1010.82 1010.87 1010.94 1011.05 1011.20 1011.40 1011.65 1011.96 1012.34 1012.79
1003.62 1003.79 1003.98 1004.18 1004.39 1004.63 1004.91 1005.23 1005.61 1006.04 1006.51 1006.99 1007.47 1007.92 1008.32 1008.66 1008.94 1009.15 1009.32 1009.46 1009.58 1009.70 1009.81 1009.91 1010.01 1010.09 1010.15 1010.19 1010.20 1010.19 1010.16 1010.13 1010.10 1010.08 1010.08 1010.10 1010.15 1010.24 1010.37 1010.55 1010.79 1011.10 1011.48
1003.34 1003.41 1003.50 1003.62 1003.80 1004.04 1004.34 1004.72 1005.16 1005.66 1006.18 1006.70 1007.18 1007.63 1008.01 1008.33 1008.58 1008.78 1008.95 1009.10 1009.23 1009.36 1009.49 1009.61 1009.70 1009.77 1009.81 1009.80 1009.77 1009.71 1009.63 1009.54 1009.46 1009.39 1009.33 1009.30 1009.29 1009.31 1009.37 1009.48 1009.64 1009.86 1010.16
1003.15 1003.14 1003.17 1003.26 1003.42 1003.67 1004.02 1004.45 1004.96 1005.50 1006.06 1006.60 1007.09 1007.52 1007.88 1008.17 1008.40 1008.59 1008.76 1008.92 1009.07 1009.21 1009.35 1009.46 1009.55 1009.59 1009.59 1009.53 1009.44 1009.31 1009.16 1009.01 1008.86 1008.73 1008.62 1008.53 1008.46 1008.42 1008.42 1008.45 1008.53 1008.67 1008.88
1003.07 1003.04 1003.05 1003.13 1003.31 1003.59 1003.98 1004.46 1005.01 1005.59 1006.17 1006.71 1007.19 1007.59 1007.92 1008.19 1008.40 1008.58 1008.75 1008.91 1009.07 1009.22 1009.36 1009.47 1009.53 1009.53 1009.47 1009.35 1009.18 1008.98 1008.75 1008.52 1008.31 1008.11 1007.94 1007.79 1007.67 1007.58 1007.52 1007.49 1007.50 1007.56 1007.69
1003.15 1003.13 1003.16 1003.26 1003.46 1003.78 1004.21 1004.73 1005.31 1005.90 1006.48 1007.00 1007.46 1007.83 1008.13 1008.36 1008.55 1008.72 1008.88 1009.05 1009.21 1009.36 1009.48 1009.56 1009.58 1009.53 1009.40 1009.21 1008.96 1008.67 1008.37 1008.07 1007.78 1007.52 1007.29 1007.10 1006.93 1006.80 1006.69 1006.61 1006.56 1006.57 1006.63
1003.40 1003.43 1003.49 1003.63 1003.88 1004.23 1004.69 1005.23 1005.81 1006.40 1006.95 1007.44 1007.86 1008.19 1008.45 1008.65 1008.82 1008.97 1009.12 1009.26 1009.41 1009.54 1009.64 1009.68 1009.65 1009.53 1009.34 1009.07 1008.74 1008.38 1008.00 1007.63 1007.28 1006.96 1006.69 1006.45 1006.24 1006.07 1005.92 1005.81 1005.72 1005.69 1005.70
1003.83 1003.91 1004.03 1004.22 1004.50 1004.88 1005.36 1005.89 1006.46 1007.01 1007.52 1007.97 1008.34 1008.62 1008.84 1009.00 1009.14 1009.26 1009.39 1009.51 1009.62 1009.71 1009.76 1009.75 1009.66 1009.48 1009.22 1008.88 1008.48 1008.05 1007.61 1007.19 1006.79 1006.43 1006.11 1005.84 1005.60 1005.40 1005.22 1005.08 1004.97 1004.90 1004.89
1004.42 1004.55 1004.72 1004.95 1005.26 1005.66 1006.12 1006.64 1007.16 1007.67 1008.13 1008.52 1008.84 1009.07 1009.24 1009.37 1009.47 1009.55 1009.63 1009.71 1009.77 1009.81 1009.80 1009.72 1009.56 1009.31 1008.99 1008.60 1008.16 1007.68 1007.21 1006.74 1006.31 1005.92 1005.58 1005.27 1005.00 1004.77 1004.56 1004.40 1004.26 1004.18 1004.15
1005.13 1005.31 1005.51 1005.77 1006.09 1006.48 1006.92 1007.39 1007.87 1008.32 1008.72 1009.05 1009.31 1009.49 1009.62 1009.70 1009.75 1009.79 1009.82 1009.83 1009.83 1009.79 1009.70 1009.55 1009.32 1009.02 1008.65 1008.22 1007.75 1007.26 1006.77 1006.30 1005.85 1005.44 1005.07 1004.74 1004.44 1004.17 1003.94 1003.74 1003.58 1003.47 1003.43
1005.91 1006.12 1006.35 1006.61 1006.92 1007.28 1007.68 1008.10 1008.52 1008.90 1009.24 1009.51 1009.72 1009.86 1009.94 1009.98 1009.98 1009.96 1009.92 1009.85 1009.76 1009.64 1009.47 1009.24 1008.95 1008.60 1008.20 1007.75 1007.28 1006.80 1006.32 1005.85 1005.40 1004.99 1004.60 1004.24 1003.91 1003.60 1003.33 1003.09 1002.90 1002.76 1002.69
1006.72 1006.94 1007.17 1007.42 1007.70 1008.02 1008.37 1008.72 1009.07 1009.39 1009.67 1009.89 1010.05 1010.15 1010.19 1010.18 1010.13 1010.04 1009.92 1009.78 1009.59 1009.38 1009.12 1008.82 1008.47 1008.08 1007.66 1007.22 1006.76 1006.30 1005.84 1005.40 1004.96 1004.55 1004.14 1003.75 1003.38 1003.03 1002.71 1002.43 1002.20 1002.02 1001.93
Thickness
5810 5810 5809 5807 5804 5801 5798 5795 5792 5790 5786 5782 5779 5776 5774 5774 5774 5774 5774 5773 5772 5771 5769 5767 5764 5763 5761 5759 5758 5756 5754 5752 5751 5749 5747 5748 5749 5748 5748 5748 5747 5747 5746
5807 5807 5807 5806 5803 5800 5798 5796 5793 5790 5787 5784 5781 5778 5776 5774 5774 5774 5773 5772 5771 5770 5768 5765 5763 5761 5759 5757 5755 5754 5751 5749 5748 5744 5740 5737 5738 5742 5744 5743 5742 5742 5742
5806 5806 5805 5804 5803 5800 5798 5796 5793 5791 5788 5785 5781 5778 5774 5772 5771 5770 5770 5771 5770 5768 5767 5765 5762 5760 5758 5755 5754 5752 5749 5745 5744 5743 5738 5732 5729 5732 5736 5737 5737 5737 5737
5810 5808 5806 5804 5803 5801 5799 5796 5793 5789 5787 5785 5780 5776 5771 5768 5768 5768 5768 5768 5768 5767 5765 5763 5761 5758 5756 5754 5752 5750 5747 5744 5740 5740 5738 5736 5733 5728 5726 5729 5731 5732 5732
5812 5809 5808 5806 5804 5802 5799 5796 5792 5788 5786 5783 5779 5775 5773 5770 5769 5768 5767 5766 5766 5765 5763 5761 5759 5757 5755 5752 5750 5748 5746 5743 5740 5738 5736 5733 5731 5729 5724 5721 5724 5726 5728
5812 5810 5809 5806 5803 5801 5798 5794 5790 5787 5784 5780 5777 5774 5771 5769 5767 5765 5764 5763 5762 5762 5761 5759 5757 5755 5753 5750 5748 5746 5744 5741 5739 5737 5735 5731 5728 5725 5722 5719 5718 5719 5722
5811 5808 5805 5802 5799 5797 5795 5792 5788 5783 5781 5779 5776 5773 5770 5768 5767 5765 5762 5760 5759 5759 5758 5757 5755 5753 5751 5749 5746 5744 5742 5740 5737 5735 5733 5731 5729 5726 5723 5719 5716 5715 5716
5811 5808 5806 5803 5800 5797 5795 5790 5786 5782 5780 5777 5775 5773 5770 5768 5766 5765 5762 5760 5758 5758 5757 5755 5753 5751 5749 5747 5744 5742 5739 5738 5736 5734 5731 5729 5727 5725 5723 5719 5715 5711 5710
5810 5807 5806 5803 5800 5797 5795 5791 5786 5782 5780 5777 5774 5771 5769 5766 5765 5763 5761 5759 5758 5757 5755 5753 5751 5749 5747 5744 5742 5739 5736 5735 5732 5731 5729 5727 5725 5723 5721 5719 5717 5712 5706
5808 5806 5804 5802 5799 5797 5793 5790 5786 5783 5780 5777 5774 5772 5768 5766 5764 5762 5759 5757 5756 5755 5753 5751 5748 5746 5744 5741 5739 5736 5733 5731 5729 5727 5725 5723 5722 5720 5718 5716 5714 5712 5708
5806 5805 5804 5801 5798 5795 5792 5789 5785 5781 5778 5775 5772 5769 5767 5765 5763 5760 5757 5755 5754 5752 5750 5747 5744 5742 5740 5738 5735 5733 5730 5728 5725 5723 5721 5719 5717 5715 5713 5712 5710 5707 5704
5806 5805 5802 5799 5795 5792 5790 5787 5784 5780 5777 5774 5770 5767 5765 5762 5760 5757 5756 5754 5751 5749 5747 5744 5741 5739 5737 5735 5732 5729 5727 5724 5721 5719 5717 5715 5713 5710 5708 5706 5704 5702 5700
5801 5800 5798 5796 5793 5790 5787 5785 5782 5779 5775 5771 5768 5765 5762 5759 5757 5755 5753 5751 5749 5746 5743 5740 5738 5736 5733 5731 5728 5726 5724 5721 5718 5716 5713 5711 5708 5705 5703 5701 5699 5698 5696
5796 5794 5793 5792 5790 5788 5786 5783 5780 5777 5773 5769 5766 5762 5759 5757 5755 5753 5750 5748 5745 5742 5740 5737 5734 5732 5730 5727 5725 5722 5719 5717 5715 5712 5710 5708 5705 5702 5699 5697 5695 5693 5690
5791 5791 5789 5786 5785 5783 5781 5779 5776 5774 5770 5766 5762 5759 5756 5754 5751 5749 5747 5744 5741 5739 5736 5733 5730 5728 5726 5723 5721 5718 5715 5712 5710 5708 5706 5704 5702 5700 5697 5694 5691 5688 5685
5788 5788 5786 5783 5781 5779 5777 5775 5773 5769 5766 5762 5758 5755 5752 5749 5746 5744 5741 5739 5736 5733 5731 5729 5726 5723 5722 5720 5717 5714 5711 5708 5705 5703 5701 5699 5697 5695 5692 5690 5688 5686 5682
5786 5785 5783 5781 5778 5776 5774 5771 5769 5766 5762 5758 5754 5750 5746 5743 5741 5739 5736 5733 5730 5728 5725 5723 5721 5718 5717 5715 5712 5709 5706 5703 5700 5698 5695 5694 5693 5690 5687 5685 5683 5681 5680
5780 5780 5779 5777 5775 5773 5770 5768 5764 5760 5756 5753 5749 5746 5742 5739 5736 5733 5730 5727 5725 5722 5719 5717 5715 5713 5712 5709 5707 5704 5701 5698 5695 5692 5690 5688 5686 5684 5681 5679 5678 5676 5675
5777 5776 5775 5772 5769 5766 5764 5760 5756 5753 5750 5746 5743 5741 5737 5734 5730 5726 5724 5722 5719 5716 5713 5711 5709 5707 5705 5703 5701 5697 5694 5692 5689 5687 5685 5682 5680 5678 5675 5673 5671 5670 5670
5771 5770 5768 5765 5762 5759 5756 5752 5749 5746 5744 5741 5739 5735 5732 5729 5724 5721 5718 5715 5713 5710 5707 5705 5703 5701 5698 5696 5694 5691 5688 5685 5683 5681 5678 5676 5673 5671 5669 5666 5664 5663 5663
5764 5763 5760 5757 5755 5753 5749 5745 5743 5740 5739 5737 5733 5729 5725 5722 5719 5715 5712 5709 5706 5703 5700 5697 5695 5693 5691 5689 5687 5684 5680 5678 5675 5673 5671 5669 5667 5664 5662 5660 5658 5657 5655
5753 5752 5750 5748 5748 5746 5743 5739 5736 5736 5733 5730 5727 5722 5718 5716 5713 5709 5706 5703 5699 5695 5692 5689 5687 5686 5684 5682 5679 5677 5674 5671 5667 5665 5664 5662 5659 5657 5655 5653 5651 5649 5648
5744 5742 5740 5739 5738 5738 5736 5732 5731 5729 5725 5722 5719 5716 5713 5709 5706 5702 5699 5695 5692 5688 5685 5682 5679 5678 5676 5674 5672 5669 5666 5663 5660 5658 5656 5653 5651 5649 5647 5645 5644 5642 5640
5733 5733 5732 5731 5729 5729 5728 5726 5724 5722 5718 5714 5711 5708 5705 5701 5698 5695 5692 5688 5685 5681 5678 5675 5672 5670 5668 5666 5663 5661 5658 5655 5652 5649 5647 5645 5643 5641 5639 5638 5636 5634 5632
5723 5724 5722 5721 5720 5719 5717 5716 5715 5714 5710 5706 5702 5699 5696 5693 5690 5686 5684 5682 5679 5676 5673 5670 5666 5663 5661 5659 5655 5653 5650 5647 5644 5641 5639 5637 5635 5633 5631 5629 5627 5625 5624
5713 5713 5712 5711 5710 5709 5707 5706 5705 5704 5701 5696 5693 5690 5687 5684 5681 5677 5674 5672 5671 5668 5665 5663 5660 5657 5654 5651 5648 5645 5642 5639 5636 5633 5631 5628 5626 5624 5623 5621 5619 5617 5615